www.pogodaiklimat.ru

Погода и климат >> Архив погоды >> Кувейт >> Метеостанция Mintribah


ПОГОДА на Метеостанции Mintribah

  • Прогноз погоды на Метеостанции Mintribah
  • Монитор погоды на Метеостанции Mintribah

АРХИВ ПОГОДЫ на Метеостанции Mintribah

Время (UTC), дата Ветер
(напр.,м/с)
 
Видим.   Явления Облачность Т
(С)
Тd
(С)
f
(%)
Тe
(С)
Тes
(С)
Комфортность P
(гПа)
Po
(гПа)
Тmin
(С)
Tmax
(С)
R
(мм)
R24
(мм)
S
(см)
15 16.05 СЗ 5-7
{10}
19 км н/о +40.3 -2.5 7 +36 +36 очень
жарко
1002.8 989.9
18 16.05 З 3-4
{10}
20 км н/о +32.2 -3.9 10 +28 +28 жарко 1005.0 991.7
21 16.05 Ю 3-4
{5}
20 км н/о +27.7 -2.2 14 +25 +25 комфорт 1005.4 991.9 +25.0 +45.2
00 17.05 Ю 4-4
{5}
20 км н/о +25.8 -1.1 17 +24 +24 комфорт 1004.8 991.2
03 17.05 ЮЗ 3-4
{6}
20 км н/о +25.7 -1.5 17 +24 +24 комфорт 1006.1 992.5
06 17.05 ЮЗ 6-8
{8}
20 км н/о +37.0 -3.0 8 +33 +33 жарко 1006.5 993.4
09 17.05 ЮЗ 3-5
{9}
19 км н/о +43.5 -0.2 7 +40 +40 очень
жарко
1005.2 992.4
12 17.05 СЗ 6-9
{11}
19 км н/о +43.1 -2.6 6 +39 +39 очень
жарко
1003.0 990.2
15 17.05 В 8-10
{13}
19 км н/о +36.1 +15.7 30 +38 +38 очень
душно
1002.8 989.7
18 17.05 ЮВ 3-5
{13}
16 км н/о +29.8 +17.9 49 +34 +34 очень
душно
1004.8 991.4
21 17.05 ЮВ 2-4
{6}
11 км н/о +26.6 +16.9 55 +30 +30 душно 1005.1 991.6 +22.9 +45.5
00 18.05 Ю 4-6
{6}
14 км н/о +25.3 +15.6 55 +28 +28 жарко 1004.6 991.0
03 18.05 СВ 5-6
{7}
6000 м дымка н/о +24.4 +19.5 74 +30 +30 очень
душно
1005.2 991.6
06 18.05 В 6-8
{8}
17 км н/о +33.6 +19.1 42 +39 +39 очень
душно
1006.2 992.9
09 18.05 В 8-12
{15}
18 км н/о +38.8 +15.4 25 +40 +40 очень
душно
1005.0 992.0
12 18.05 В 5-10
{15}
18 км н/о +37.2 +12.6 23 +37 +37 очень
жарко
1003.9 990.8
15 18.05 В 3-6
{11}
18 км н/о +34.6 +15.3 32 +37 +37 очень
душно
1003.6 990.4
18 18.05 ЮВ 2-4
{11}
17 км н/о +29.8 +16.2 44 +33 +33 душно 1005.1 991.7
21 18.05 В 1-3
{5}
12 км н/о +27.0 +16.5 53 +31 +31 душно 1005.6 992.1 +22.7 +40.0
00 19.05 В 3-8
{8}
10 км н/о +25.6 +16.9 59 +29 +29 душно 1004.8 991.2
03 19.05 СВ 3-4
{8}
8000 м дымка н/о +24.1 +21.8 87 +31 +31 очень
душно
1005.9 992.2
06 19.05 В 6-9
{9}
7000 м дымка н/о +31.9 +21.7 55 +40 +40 очень
душно
1006.6 993.3
09 19.05 В 6-11
{11}
7000 м дымка н/о +39.2 +10.1 17 +38 +38 очень
жарко
1005.4 992.4
12 19.05 В 6-13
{13}
7000 м дым н/о +39.3 +12.4 20 +39 +39 очень
жарко
1003.9 990.9
15 19.05 В 4-6
{13}
14 км н/о +34.0 +16.8 36 +37 +37 очень
душно
1004.3 991.1
18 19.05 В 3-5
{16}
19 км н/о +31.4 +15.8 39 +34 +34 душно 1007.2 993.8
21 19.05 В 3-4
{11}
20 км н/о +27.6 +19.8 62 +33 +33 очень
душно
1007.0 993.5 +23.5 +40.7
00 20.05 В 2-4
{11}
19 км н/о +27.4 +16.8 52 +31 +31 душно 1006.5 993.0
03 20.05 В 5-7
{7}
19 км н/о +26.9 +19.8 65 +33 +33 очень
душно
1008.3 994.7
06 20.05 В 4-9
{9}
19 км н/о +33.3 +18.9 43 +38 +38 очень
душно
1009.0 995.7
09 20.05 ЮВ 5-9
{11}
16 км н/о +38.6 +13.3 22 +39 +39 душно 1008.0 994.9
12 20.05 В 4-8
{12}
17 км н/о +38.8 +14.8 24 +40 +40 очень
душно
1005.9 992.9
15 20.05 В 5-9
{13}
20 км н/о +32.5 +14.5 34 +34 +34 очень
жарко
1006.2 992.9
18 20.05 ЮВ 6-7
{13}
20 км н/о +30.6 +13.9 36 +32 +32 жарко 1007.7 994.3
21 20.05 В 9-13
{19}
8000 м ливневой дождь н/о +27.4 +17.0 53 +31 +31 душно 1012.0 998.4 +25.5 +39.9
00 21.05 В 6-7
{19}
9000 м дымка {ливн. осадки, дождь} н/о +25.4 +13.9 49 +28 +28 жарко 1009.8 996.1
03 21.05 ЮВ 3-4
{6}
12 км н/о +23.7 +17.0 66 +27 +27 жарко 1010.3 996.6
06 21.05 ЮВ 2-4
{6}
19 км н/о +32.2 +13.9 33 +34 +34 душно 1010.7 997.3
09 21.05 Ю 3-5
{5}
18 км н/о +38.8 +10.6 18 +37 +37 очень
жарко
1009.8 996.7
12 21.05 СЗ 2-4
{6}
18 км н/о +41.1 +9.6 15 +39 +39 очень
жарко
1007.4 994.4
15 21.05 ЮВ 7-10
{16}
19 км н/о +35.0 +10.4 22 +34 +34 очень
жарко
1008.0 994.8
18 21.05 ЮВ 7-11
{17}
20 км ливневой дождь н/о +26.2 +16.8 56 +30 +30 душно 1011.2 997.6
21 21.05 ЮЗ 4-5
{10}
19 км {ливн. осадки, дождь} н/о +24.9 +20.7 78 +31 +31 очень
душно
1010.6 996.9 +21.9 +42.3
00 22.05 ЮЗ 5-7
{10}
19 км {ливн. осадки, дождь} н/о +23.8 +19.9 79 +29 +29 душно 1010.3 996.6
03 22.05 ЮЗ 6-7
{7}
19 км н/о +23.7 +18.1 71 +28 +28 душно 1010.8 997.0
06 22.05 ЮЗ 7-9
{9}
19 км н/о +34.9 +13.3 27 +35 +35 очень
жарко
1011.5 998.2
09 22.05 З 6-9
{12}
19 км н/о +40.9 +7.4 13 +38 +38 очень
жарко
1009.7 996.7
12 22.05 З 8-13
{14}
19 км н/о +42.5 +4.8 10 +39 +39 очень
жарко
1007.6 994.7
15 22.05 СЗ 8-10
{14}
20 км н/о +38.4 +4.4 12 +35 +35 очень
жарко
1007.3 994.2
18 22.05 СЗ 3-4
{14}
20 км н/о +31.9 +7.8 22 +31 +31 жарко 1008.8 995.4
21 22.05 СЗ 3-3
{4}
20 км н/о +28.5 +9.5 30 +28 +28 жарко 1009.1 995.6 +23.0 +43.0
00 23.05 ЮЗ 4-4
{4}
20 км н/о +25.6 +16.5 57 +29 +29 душно 1008.7 995.1
03 23.05 ЮЗ 5-6
{7}
20 км н/о +25.0 +14.5 52 +28 +28 жарко 1009.5 995.8
06 23.05 З 6-8
{8}
20 км н/о +37.9 +7.3 15 +35 +35 очень
жарко
1009.5 996.4
09 23.05 СЗ 8-14
{16}
19 км н/о +40.2 +7.0 13 +38 +38 очень
жарко
1008.1 995.1
12 23.05 З 10-15
{16}
19 км н/о +42.2 +6.3 11 +39 +39 очень
жарко
1006.6 993.7

 

Местоположение метеостанции Метеостанция Mintribah (Кувейт): широта 29.82 долгота 47.37 высота над уровнем моря 119 м.

В архиве по умолчанию представлена погода на Метеостанции Mintribah за последнюю неделю. Архивные данные за месяц целиком и за предыдущие месяцы, начиная с января 2011 года, Вы можете получить, выбрав интересующий диапазон дат из раскрывающегося списка и нажав кнопку "Ввод!".


*Определитесь, кто Вы:
робот инопланетянин человек

Внимание! Время в таблицах - всемирное. Для получения местного времени необходимо прибавить поправку, которая равна 3 ч.

Смотрите также архив погоды в соседних городах и на ближайших метеорологических станциях:

Погода на Метеостанции Jal Aliyah (Кувейт) (31 км)
Погода в Абдали (Кувейт) (43 км)
Погода на Метеостанции Sabriyah (Кувейт) (47 км)
Погода в Эль-Джахра (Кувейт) (63 км)
Погода на Абраке Аль Хабари (Кувейт) (68 км)
Погода в Сулайбии (Кувейт) (70 км)
Погода на Экспериментальной ферме (Кувейт) (81 км)
Погода в Минагише (Кувейт) (85 км)
Погода в Кувейт Сити (Кувейт) (85 км)
Погода в Басре аэропорт (Ирак) (87 км)

Пояснения к столбцам:

Ветер - указаны скорость ветра в м/с - средняя за 10 мин, порывы в срок и между сроками (в фигурных скобках) и направление, откуда дует ветер: С - северный, СВ - северо-восточный, В - восточный, ЮВ - юго-восточный, Ю - южный, ЮЗ - юго-западный, З - западный, СЗ - северо-западный.
Видимость - горизонтальная дальность видимости в метрах или километрах. При видимости от 1 до 10 км при отсутствии осадков обычно наблюдается дымка, при ухудшении видимости до 1 км и менее - туман. В сухую погоду видимость может ухудшаться дымом, пылью или мглою.
Явления - указаны атмосферные явления, наблюдавшиеся в срок или в последний час перед сроком; фигурными скобками обозначены явления, наблюдавшиеся между сроками (за 1-3 часа до срока); квадратными скобками обозначены град или гололедные отложения с указанием их диаметра в мм.
Облачность - указаны через наклонную черту общая и нижняя облачность в баллах и высота нижней границы облаков в метрах; квадратными скобками обозначены формы облаков: Ci - перистые, Cs - перисто-слоистые, Cc - перисто-кучевые, Ac - высококучевые, As - высокослоистые, Sc - слоисто-кучевые, Ns - слоисто-дождевые, Cu - кучевые, Cb - кучево-дождевые. Подробнее классификацию облаков см. в Атласе облаков (PDF).
T - Температура воздуха - температура, измеренная на высоте 2 м над землей.
Td - Температура точки росы - температура, при понижении до которой содержащийся в воздухе водяной пар достигнет насыщения.
f - Относительная влажность воздуха - влажноcть воздуха, измеренная на высоте 2 м над землей.
Te - Эффективная температура - температура, которую ощущает одетый по сезону человек в тени. Характеристика душности погоды. При расчете учитывается влияние влажности воздуха и скорости ветра на теплоощущения человека.
Tes - Эффективная температура на солнце - температура, которую ощущает человек, с поправкой на солнечный нагрев. Характеристика знойности погоды. Зависит от высоты солнца над горизонтом, облачности и скорости ветра. Ночью, в пасмурную погоду, а также при ветре 12 м/с и более поправка равна нулю.
P - Атмосферное давление - приведенное к уровню моря атмосферное давление.
Po - Атмосферное давление - измеренное на уровне метеостанции атмосферное давление.
Tmin - Минимальная температура - минимум температуры воздуха на высоте 2 м над землей.
Tmax - Максимальная температура - максимум температуры воздуха на высоте 2 м над землей.
R - Количество осадков - Количество выпавших осадков за период времени, мм. При наведении курсора мыши на число - период времени, за который выпало указанное количество осадков.
R24 - Количество осадков - Количество выпавших осадков за 24 часа, мм.
S - Снежный покров - Высота снежного покрова, см. При наведении курсора мыши на число - состояние снежного покрова и степень покрытия местности в баллах.